This demonstration page uses our WeatherBlox Daily Observations layout. Learn more.

Left ArrowRight Arrow

Hourly Observations for October 30, 2022

Temp ( °F °C ) Dew Point ( °F °C ) Humidity (%) Winds ( mph kmh ) Pressure ( in mb ) Visibility ( mi km ) Precip ( " mm )
12:56 am 00:56 Clear 49 9.4 40 4.4 71 71 SW 9 15 30.09 1019 10 16 0.00 0.00
1:56 am 01:56 Clear 49 9.4 40 4.4 71 71 WNW 6 9 30.08 1019 10 16 0.00 0.00
2:56 am 02:56 Clear 47 8.3 41 5 80 80 NW 8 13 30.08 1019 10 16 0.00 0.00
3:56 am 03:56 Clear 47 8.3 41 5 80 80 NW 7 11 30.06 1018 10 16 0.00 0.00
4:56 am 04:56 Clear 47 8.3 37 2.8 68 68 NW 7 11 30.06 1018 10 16 0.00 0.00
5:56 am 05:56 Clear 45 7.2 32 0 60 60 NW 8 13 30.05 1018 10 16 0.00 0.00
6:56 am 06:56 Clear 44 6.7 30 -1.1 57 57 NNW 10 17 30.06 1018 10 16 0.00 0.00
7:56 am 07:56 Clear 42 5.6 29 -1.7 59 59 NNW 12 19 30.07 1018 10 16 0.00 0.00
8:56 am 08:56 Sunny 42 5.6 29 -1.7 59 59 NNW 12 19 30.08 1019 10 16 0.00 0.00
9:56 am 09:56 Sunny 45 7.2 30 -1.1 55 55 NNW 10 17 30.09 1019 10 16 0.00 0.00
10:56 am 10:56 Sunny 49 9.4 30 -1.1 48 48 N 14 22 30.08 1019 10 16 0.00 0.00
11:56 am 11:56 Sunny 52 11.1 31 -0.6 44 44 NNW 9 15 30.07 1018 10 16 0.00 0.00
12:56 pm 12:56 Sunny 56 13.3 31 -0.6 38 38 N 13 20 30.06 1018 10 16 0.00 0.00
1:56 pm 13:56 Sunny 61 16.1 30 -1.1 31 31 NNE 13 20 30.02 1017 10 16 0.00 0.00
2:56 pm 14:56 Sunny 61 16.1 30 -1.1 31 31 N 13 20 30.00 1016 10 16 0.00 0.00
3:56 pm 15:56 Sunny 61 16.1 29 -1.7 29 29 N 14 22 29.99 1016 10 16 0.00 0.00
4:56 pm 16:56 Sunny 60 15.6 30 -1.1 32 32 NNE 9 15 29.98 1015 10 16 0.00 0.00
5:56 pm 17:56 Sunny 58 14.4 33 0.6 39 39 NE 5 7 29.98 1015 10 16 0.00 0.00
6:56 pm 18:56 Clear 56 13.3 32 0 40 40 N 5 7 29.99 1016 10 16 0.00 0.00
7:56 pm 19:56 Clear 51 10.6 32 0 48 48 NNW 3 6 30.00 1016 10 16 0.00 0.00
8:56 pm 20:56 Clear 47 8.3 33 0.6 58 58 NW 3 6 30.01 1016 10 16 0.00 0.00
9:56 pm 21:56 Clear 46 7.8 32 0 58 58 WNW 7 11 30.01 1016 10 16 0.00 0.00
10:56 pm 22:56 Clear 43 6.1 32 0 65 65 WNW 5 7 30.01 1016 10 16 0.00 0.00
11:56 pm 23:56 Clear 42 5.6 33 0.6 70 70 W 3 6 30.00 1016 10 16 0.00 0.00

Powered by AerisWeather